TimeEDT,TemperatureF,Dew PointF,Humidity,Sea Level PressureIn,VisibilityMPH,Wind Direction,Wind SpeedMPH,Gust SpeedMPH,PrecipitationIn,Events,Conditions,WindDirDegrees,DateUTC
12:53 AM,36.0,30.0,79,30.04,10.0,Calm,Calm,-,N/A,,Overcast,0,2013-03-11 04:53:00
1:53 AM,37.9,30.9,76,30.02,10.0,South,3.5,-,N/A,,Clear,170,2013-03-11 05:53:00
2:53 AM,43.0,27.0,53,30.04,10.0,WNW,3.5,-,N/A,,Clear,290,2013-03-11 06:53:00
3:53 AM,37.9,28.9,70,30.03,10.0,Calm,Calm,-,N/A,,Clear,0,2013-03-11 07:53:00
4:53 AM,36.0,28.9,76,30.05,10.0,Calm,Calm,-,N/A,,Clear,0,2013-03-11 08:53:00
5:53 AM,36.0,28.9,76,30.02,10.0,Calm,Calm,-,N/A,,Scattered Clouds,0,2013-03-11 09:53:00
6:53 AM,37.0,28.9,73,30.01,10.0,Calm,Calm,-,N/A,,Mostly Cloudy,0,2013-03-11 10:53:00
7:53 AM,39.2,28.4,65,29.97,10.0,ENE,4.6,-,N/A,,Overcast,60,2013-03-11 11:53:00
8:53 AM,37.9,30.0,73,30.00,10.0,ENE,4.6,-,N/A,,Partly Cloudy,60,2013-03-11 12:53:00
9:53 AM,39.9,30.9,70,30.01,10.0,Calm,Calm,-,N/A,,Mostly Cloudy,0,2013-03-11 13:53:00
10:53 AM,42.1,30.9,65,30.00,10.0,ENE,3.5,-,0.00,Rain,Light Rain,60,2013-03-11 14:53:00
11:53 AM,43.0,32.0,65,29.97,10.0,NE,4.6,-,0.00,,Mostly Cloudy,40,2013-03-11 15:53:00
12:53 PM,46.0,33.1,61,29.98,10.0,NE,4.6,-,0.00,Rain,Light Rain,40,2013-03-11 16:53:00
1:53 PM,46.9,33.1,59,29.95,10.0,ENE,4.6,-,0.00,,Mostly Cloudy,70,2013-03-11 17:53:00
2:53 PM,46.9,32.0,56,29.93,10.0,NE,6.9,-,N/A,,Overcast,50,2013-03-11 18:53:00
3:53 PM,44.1,32.0,63,29.90,10.0,NNE,5.8,-,N/A,,Scattered Clouds,30,2013-03-11 19:53:00
4:53 PM,45.0,32.0,60,29.87,10.0,NE,4.6,-,N/A,,Overcast,40,2013-03-11 20:53:00
5:53 PM,43.0,32.0,65,29.86,10.0,NNW,3.5,-,N/A,,Overcast,340,2013-03-11 21:53:00
6:53 PM,42.1,32.0,67,29.84,10.0,NNE,3.5,-,N/A,,Overcast,30,2013-03-11 22:53:00
7:53 PM,42.1,32.0,67,29.81,10.0,Calm,Calm,-,N/A,,Clear,0,2013-03-11 23:53:00
8:53 PM,37.9,32.0,79,29.82,10.0,Calm,Calm,-,N/A,,Overcast,0,2013-03-12 00:53:00
9:53 PM,37.0,32.0,82,29.83,10.0,Calm,Calm,-,N/A,,Overcast,0,2013-03-12 01:53:00
10:53 PM,50.0,28.0,43,29.80,10.0,South,15.0,-,0.00,Rain,Light Rain,170,2013-03-12 02:53:00
11:53 PM,48.0,35.1,61,29.80,10.0,SSW,13.8,21.9,0.00,Rain,Light Rain,200,2013-03-12 03:53:00